カタログに戻る

STARLINK-35237

運用中通信VLEO
NORAD 65645·PAYLOAD·🇺🇸 United States

打ち上げ Sep 18, 2025 から Cape Canaveral Space Force Station

Loading…

次のパス (今後24時間)

TLE

最新Source: CelesTrak SupGP

元期: Sep 14, 2026, 15:42 UTC

1 65645C 25210Z   26257.65465278  .00046703  00000+0  13795-2 0  2574
2 65645  53.1593 148.9404 0001294  91.5439  76.3939 15.34374334    16

AllMySatでSTARLINK-35237をリアルタイム追跡

Download on the App Store